Wetbulb
47.59 46.43 47.62 48.35 46.97 46.53 48.48 49.35 49.33 48.42 48.84 46.25 45.61 44.98 44.89 45.20 45.50 46.10 47.44 47.58 47.05 47.08 45.16 43.71 43.40 43.27 42.62 42.44 42.12 41.35 40.66 40.43 40.74 40.36 39.95 40.23 40.58 40.27 41.06 41.31 41.15 41.68 42.41
41.88 43.91 45.78 46.16 46.77 46.78 48.08 48.56 49.32 48.35 49.77 50.08 46.74 46.42 45.33 45.37 45.85 46.79 47.06 47.35 47.04 46.87 46.02 44.40 43.97 43.57 42.85 42.30 41.96 41.22 40.60 40.36 40.75 39.89 37.20 36.15 38.56 40.43 41.28 39.58 40.99 40.56 41.10
42.99 43.23 44.25 45.60 45.78 45.27 46.20 48.18 48.77 48.62 49.44 47.45 46.01 44.85 44.22 43.77 43.95 44.22 44.72 46.25 46.83 46.73 46.13 45.32 44.34 43.89 43.01 42.86 42.31 41.78 40.74 40.31 40.38 40.41 40.10 35.94 34.16 35.79 39.37 39.68 39.96 39.56 39.53
42.65 44.89 46.41 44.86 45.28 47.74 46.43 47.96 48.55 48.28 48.59 46.85 46.29 45.02 45.08 44.49 43.90 44.77 45.41 46.47 46.74 46.22 46.43 46.16 44.90 44.12 43.74 42.99 43.04 43.98 42.09 40.78 40.03 40.24 42.36 39.06 38.28 36.68 36.57 39.34 39.84 41.25 41.11
43.13 43.89 46.67 48.11 48.34 47.99 46.14 46.63 47.31 47.90 48.19 47.30 47.62 46.40 44.02 44.07 43.90 44.29 44.72 44.99 45.96 46.73 47.22 46.65 45.52 44.46 43.85 43.62 43.42 43.20 42.30 41.86 41.40 40.66 40.19 39.59 38.84 37.38 37.33 37.97 37.58 39.66 40.94
42.48 43.84 46.92 48.02 48.04 45.79 46.23 45.73 46.39 47.05 46.57 46.73 45.69 45.71 44.69 44.22 43.59 43.85 44.29 45.34 46.60 47.77 48.24 47.79 46.32 45.57 44.77 44.24 44.20 43.40 42.77 42.48 42.24 41.89 41.26 41.65 40.01 37.92 36.45 35.74 36.31 38.64 41.58
42.13 42.92 44.25 45.18 46.40 45.56 45.99 46.83 46.64 46.94 46.32 45.91 45.85 45.78 45.31 44.11 44.37 44.43 44.76 45.04 46.14 47.09 48.06 48.03 47.35 46.08 45.41 45.19 44.57 43.65 42.96 42.25 41.31 41.25 42.23 43.15 43.40 43.27 39.97 38.64 40.61 38.88 41.52
42.44 43.56 45.61 46.57 46.56 47.47 46.78 47.42 46.78 47.57 46.71 46.61 46.69 46.35 45.48 46.06 45.80 45.53 45.85 46.48 47.55 48.42 49.01 49.02 48.55 48.14 47.34 46.30 44.97 43.89 43.54 42.82 42.29 41.57 41.13 42.47 42.75 42.71 43.31 42.11 39.22 39.71 41.09
42.54 43.64 44.67 46.53 46.60 47.15 47.67 48.06 47.33 48.03 47.60 47.95 47.39 46.31 46.28 45.79 46.88 46.46 47.09 47.62 48.14 49.47 49.03 48.60 47.88 47.55 47.48 46.96 45.68 44.63 44.17 43.86 43.32 42.84 42.30 41.99 42.92 42.25 42.72 42.66 41.43 40.51 38.13
43.03 43.57 44.53 45.92 46.91 48.18 48.97 48.18 48.77 48.52 48.74 48.20 48.11 48.59 47.70 47.49 47.47 47.04 47.35 47.95 48.50 48.43 48.21 47.75 47.26 46.68 46.24 45.98 45.56 44.77 44.56 43.85 43.60 43.70 42.67 42.32 42.89 42.83 42.38 42.09 41.68 41.47 41.24
43.57 44.33 45.25 45.94 47.39 47.59 47.37 48.56 48.18 47.95 47.73 48.35 48.44 47.89 48.01 47.83 47.67 47.94 48.19 48.36 48.15 47.87 47.64 47.78 47.56 47.16 46.73 46.18 44.89 44.24 44.26 43.78 43.48 43.22 42.88 43.01 42.92 42.79 42.00 41.76 42.19 41.95 41.12
43.91 44.80 45.57 45.86 45.85 46.97 47.12 48.54 48.84 48.64 49.45 49.27 48.44 48.59 48.08 47.65 47.53 48.16 48.32 48.29 47.81 47.70 47.72 47.48 47.22 47.09 46.88 46.31 45.41 44.94 45.11 43.97 43.41 43.49 42.76 42.90 44.87 42.04 41.91 41.50 41.22 41.58 42.24
44.02 44.54 44.67 45.54 46.35 46.65 47.43 48.48 48.93 49.43 49.57 48.31 48.40 47.75 47.41 47.14 47.74 47.94 47.74 47.66 47.36 47.36 47.36 47.34 46.86 46.77 46.47 45.73 45.05 44.64 44.27 43.72 43.47 43.13 42.49 42.70 42.18 41.39 41.33 41.04 40.97 41.23 42.89
45.52 44.74 44.12 44.85 46.81 47.74 48.15 48.68 49.18 49.53 49.12 48.33 48.00 48.08 48.16 48.28 48.41 48.24 47.33 47.61 47.88 47.74 46.61 46.11 46.09 46.01 45.76 45.49 45.22 44.66 43.66 43.12 43.23 43.38 43.14 42.81 42.46 41.82 41.54 41.60 40.85 41.45 40.37
45.30 45.99 46.26 46.36 45.88 46.06 47.55 48.63 49.49 49.01 48.80 48.56 48.10 48.76 49.19 48.63 48.00 47.32 47.59 48.12 47.99 47.22 47.07 46.49 45.64 45.21 44.69 45.00 44.02 43.81 43.16 42.68 42.56 42.87 43.03 43.23 44.74 49.25 49.33 46.96 44.45 41.77 40.11
45.14 47.33 47.61 47.41 46.77 47.70 48.19 48.82 49.36 49.09 48.81 48.84 49.01 49.72 48.24 48.37 48.20 48.09 48.03 47.78 47.19 47.10 46.79 45.90 45.68 45.13 45.53 49.46 51.22 48.01 43.79 43.38 42.72 42.40 42.65 42.82 46.37 46.27 50.17 51.35 51.92 51.16 43.53
45.36 46.05 48.17 48.57 49.26 49.04 49.55 48.64 49.54 48.82 48.26 49.27 49.59 49.18 48.88 48.65 48.65 49.08 48.07 47.26 46.47 46.39 45.86 45.46 45.40 45.10 45.37 51.03 53.23 52.94 46.42 44.37 42.90 42.18 42.03 42.95 45.22 46.40 44.24 47.20 49.76 48.39 49.56
44.86 45.60 47.99 49.47 49.66 50.35 48.56 50.29 48.53 48.45 48.77 49.06 49.45 49.37 48.79 49.05 48.99 48.55 48.60 46.25 46.02 45.70 45.22 45.72 46.13 45.78 46.39 51.51 53.12 52.24 44.79 43.29 42.67 42.22 42.44 42.22 42.75 43.73 46.06 44.59 43.42 42.28 42.12
46.65 46.25 46.55 47.96 50.08 49.22 49.70 49.58 47.15 48.94 48.90 49.24 49.58 49.54 49.32 49.04 48.72 48.56 48.30 45.95 45.46 45.19 45.78 46.53 45.94 45.24 45.15 50.10 51.75 48.31 43.42 42.76 41.74 42.56 43.00 43.15 43.43 49.18 49.96 43.16 41.34 41.14 41.49
46.08 45.84 46.15 45.89 46.35 47.90 49.23 48.25 48.08 48.64 48.26 49.81 50.40 50.18 49.33 49.49 48.66 49.40 46.99 45.71 45.57 46.10 46.71 46.15 45.53 47.09 44.55 49.12 51.23 46.80 42.94 40.79 40.68 41.34 42.11 45.68 46.32 48.88 48.87 43.59 41.01 38.93 39.26
45.21 46.95 45.75 45.68 45.97 46.63 47.01 47.44 48.84 48.27 50.09 50.89 49.80 49.37 48.79 49.52 49.53 46.75 45.37 45.88 45.96 46.06 45.20 45.17 44.72 44.60 45.08 44.76 50.77 49.40 42.27 40.96 40.68 40.80 40.89 41.72 46.55 47.02 46.35 46.17 41.21 41.07 41.00
46.54 46.73 46.16 46.10 46.16 45.51 45.91 47.34 47.51 50.32 49.98 48.49 48.44 48.67 48.54 49.09 47.47 47.59 45.88 45.84 45.50 44.54 43.81 43.57 43.28 43.67 43.70 48.30 50.24 50.90 47.13 45.25 41.50 41.02 41.10 41.02 44.45 44.40 45.16 44.81 46.16 44.14 39.55
46.46 45.97 45.51 45.73 46.00 45.80 45.47 45.61 48.41 47.75 47.35 46.58 46.92 46.65 46.67 47.62 47.31 47.00 46.03 45.12 44.57 43.91 43.06 42.89 42.14 41.93 43.09 43.40 50.10 50.99 49.70 48.21 42.21 40.92 41.98 42.62 42.76 43.35 41.38 43.35 42.17 39.28 33.82
45.99 45.93 45.55 45.29 45.01 45.47 45.80 45.71 46.46 46.62 46.68 46.21 45.72 45.43 46.15 45.42 45.90 46.96 47.04 46.13 44.74 43.42 43.15 42.35 41.49 41.09 41.39 41.27 42.24 42.89 41.88 43.90 40.63 40.78 38.13 40.12 40.53 40.96 38.99 36.40 35.11 33.43 32.90
46.51 45.12 44.78 44.77 45.49 45.12 45.70 45.86 45.87 45.94 45.60 45.43 45.09 45.25 45.99 46.50 45.29 45.86 45.91 45.91 45.12 45.94 43.59 42.35 41.73 40.37 39.98 40.94 42.60 41.35 38.89 37.72 39.49 39.09 36.21 34.60 34.08 32.73 32.22 31.94 31.67 31.67 31.12
45.30 45.42 45.59 44.80 45.34 44.87 45.48 45.72 46.19 46.01 45.35 44.85 44.92 45.41 45.79 44.74 45.27 44.65 42.86 46.45 46.26 46.86 46.41 46.07 43.37 41.67 44.01 46.15 45.85 45.19 43.81 42.97 42.31 36.17 33.65 32.49 31.75 31.03 30.51 30.13 29.92 29.91 31.40
MSLP
1014.27 1014.71 1014.94 1015.43 1016.11 1016.77 1017.26 1017.81 1018.51 1018.96 1019.70 1020.49 1021.20 1021.58 1021.72 1021.69 1021.64 1021.52 1021.39 1021.44 1021.54 1021.64 1021.93 1022.17 1022.34 1022.50 1022.81 1022.82 1023.12 1023.34 1023.46 1023.44 1023.23 1023.23 1022.41 1021.30 1020.64 1020.47 1020.31 1020.07 1019.92 1019.81 1019.81
1014.09 1014.20 1014.59 1015.08 1015.51 1016.03 1016.63 1017.28 1017.81 1018.40 1018.99 1019.63 1020.13 1020.55 1020.90 1020.99 1020.81 1020.66 1020.78 1020.88 1021.04 1021.19 1021.46 1021.69 1021.89 1022.08 1022.42 1022.53 1022.79 1023.10 1023.40 1023.43 1023.22 1023.52 1023.54 1022.56 1021.18 1020.48 1020.01 1019.98 1019.83 1019.81 1019.75
1013.29 1013.58 1014.07 1014.48 1014.91 1015.44 1015.89 1016.50 1017.06 1017.66 1018.28 1018.84 1019.63 1020.30 1020.55 1020.75 1020.79 1020.60 1020.54 1020.38 1020.53 1020.65 1020.85 1021.01 1021.31 1021.50 1021.79 1021.94 1022.13 1022.44 1023.01 1023.21 1023.19 1023.26 1023.53 1023.24 1022.92 1022.14 1020.55 1019.93 1019.88 1019.89 1019.88
1012.29 1012.49 1013.04 1013.81 1014.29 1014.53 1015.17 1015.68 1016.35 1017.05 1017.68 1018.31 1019.02 1019.57 1019.95 1020.34 1020.17 1020.03 1020.02 1020.04 1020.05 1020.14 1020.23 1020.38 1020.60 1020.80 1021.10 1021.40 1021.38 1021.61 1022.07 1022.64 1022.94 1023.10 1022.83 1022.91 1023.18 1023.23 1022.04 1020.66 1020.17 1019.79 1019.78
1011.28 1011.65 1012.04 1012.49 1013.08 1013.90 1014.51 1015.15 1015.78 1016.46 1016.98 1017.70 1018.19 1018.81 1019.37 1019.44 1019.44 1019.72 1019.85 1019.91 1019.85 1019.79 1019.74 1019.82 1019.96 1020.21 1020.48 1020.57 1020.80 1021.08 1021.44 1021.69 1022.04 1022.43 1022.65 1022.94 1023.01 1023.23 1023.56 1021.86 1020.57 1019.96 1019.39
1010.55 1011.03 1011.19 1011.95 1012.63 1013.33 1014.09 1014.78 1015.40 1015.83 1016.38 1017.05 1017.60 1018.09 1018.64 1019.03 1019.43 1019.56 1019.75 1019.59 1019.50 1019.38 1019.23 1019.25 1019.37 1019.44 1019.76 1019.97 1020.06 1020.33 1020.66 1020.94 1021.24 1021.58 1021.91 1022.09 1022.38 1022.55 1022.76 1022.69 1021.50 1020.49 1018.80
1010.12 1010.56 1011.19 1011.68 1012.35 1013.06 1013.61 1014.29 1014.87 1015.36 1015.82 1016.47 1016.98 1017.35 1017.74 1018.27 1018.63 1018.86 1019.08 1019.20 1019.08 1018.86 1018.63 1018.76 1018.87 1019.01 1019.04 1019.18 1019.42 1019.79 1020.01 1020.25 1020.58 1020.79 1020.98 1021.09 1021.20 1021.28 1021.44 1021.58 1021.01 1020.73 1019.16
1009.48 1009.95 1010.42 1010.97 1011.57 1012.25 1012.99 1013.66 1014.17 1014.70 1015.24 1015.76 1016.14 1016.52 1016.94 1017.44 1017.70 1017.89 1018.15 1018.31 1018.40 1018.20 1018.11 1018.15 1018.19 1018.27 1018.45 1018.62 1018.91 1019.22 1019.39 1019.62 1019.82 1019.98 1020.06 1020.03 1020.18 1020.35 1020.43 1020.54 1020.69 1020.25 1019.47
1009.00 1009.47 1010.08 1010.42 1010.95 1011.57 1012.15 1012.74 1013.41 1013.89 1014.39 1014.84 1015.39 1015.83 1016.23 1016.65 1016.85 1017.03 1017.39 1017.55 1017.57 1017.56 1017.60 1017.61 1017.73 1017.76 1017.96 1018.15 1018.47 1018.73 1018.86 1019.10 1019.15 1019.16 1019.24 1019.43 1019.45 1019.50 1019.48 1019.55 1019.69 1019.92 1019.12
1008.62 1009.13 1009.68 1009.99 1010.39 1010.77 1011.31 1012.05 1012.55 1012.98 1013.37 1014.04 1014.55 1014.96 1015.38 1015.72 1015.99 1016.43 1016.70 1016.86 1016.87 1017.03 1017.11 1017.22 1017.28 1017.41 1017.62 1017.71 1018.05 1018.24 1018.40 1018.57 1018.53 1018.72 1018.84 1018.84 1018.76 1018.64 1018.70 1018.81 1018.80 1018.87 1018.88
1008.12 1008.57 1009.10 1009.35 1009.81 1010.35 1010.87 1011.37 1012.00 1012.43 1012.84 1013.33 1013.75 1014.21 1014.58 1014.96 1015.34 1015.70 1015.87 1015.99 1016.24 1016.50 1016.65 1016.65 1016.75 1016.89 1017.06 1017.31 1017.62 1017.78 1017.95 1018.11 1018.15 1018.21 1018.25 1018.12 1018.02 1017.93 1017.97 1018.05 1017.95 1017.91 1018.10
1007.76 1008.18 1008.63 1009.05 1009.66 1010.06 1010.47 1010.76 1011.27 1011.67 1011.85 1012.27 1012.93 1013.37 1013.80 1014.31 1014.72 1014.92 1015.00 1015.28 1015.62 1015.98 1016.06 1016.20 1016.39 1016.51 1016.64 1016.82 1017.07 1017.27 1017.43 1017.66 1017.75 1017.59 1017.71 1017.53 1017.48 1017.43 1017.35 1017.22 1017.24 1017.32 1017.05
1008.11 1008.39 1008.73 1009.03 1009.25 1009.60 1009.96 1010.21 1010.45 1010.61 1011.06 1011.68 1012.25 1012.83 1013.26 1013.65 1013.80 1013.96 1014.21 1014.67 1015.08 1015.31 1015.50 1015.73 1015.90 1015.99 1016.07 1016.28 1016.42 1016.66 1016.82 1017.02 1017.00 1016.98 1017.21 1017.05 1017.07 1016.94 1016.60 1016.73 1016.85 1016.58 1016.26
1007.64 1007.94 1008.40 1008.50 1008.54 1008.79 1009.08 1009.38 1009.67 1010.01 1010.52 1011.07 1011.56 1011.97 1012.25 1012.49 1012.71 1013.00 1013.52 1013.95 1014.27 1014.66 1014.95 1015.15 1015.38 1015.53 1015.57 1015.69 1015.78 1015.97 1016.22 1016.39 1016.46 1016.61 1016.59 1016.53 1016.51 1016.33 1016.21 1016.15 1016.15 1015.99 1015.89
1007.40 1007.42 1007.47 1007.58 1007.79 1008.05 1008.30 1008.54 1008.72 1009.11 1009.63 1010.39 1010.86 1010.87 1011.15 1011.56 1011.99 1012.50 1012.86 1013.22 1013.67 1014.00 1014.35 1014.68 1014.94 1015.15 1015.23 1015.16 1015.26 1015.52 1015.78 1016.01 1016.12 1016.07 1016.20 1016.07 1015.84 1015.77 1015.48 1015.38 1015.33 1015.32 1015.20
1006.50 1006.44 1006.71 1006.65 1006.76 1006.87 1007.08 1007.49 1007.73 1008.20 1008.72 1009.26 1009.58 1010.03 1010.53 1010.97 1011.33 1011.75 1012.24 1012.75 1013.14 1013.57 1013.94 1014.24 1014.53 1014.78 1014.76 1014.67 1014.72 1014.94 1015.29 1015.60 1015.72 1015.91 1015.77 1015.70 1015.55 1015.15 1014.90 1014.67 1014.48 1014.48 1014.31
1005.66 1005.60 1005.37 1005.38 1005.47 1005.47 1005.55 1006.11 1006.38 1007.26 1008.03 1008.22 1008.53 1009.13 1009.67 1010.11 1010.44 1010.93 1011.67 1012.22 1012.71 1013.12 1013.49 1013.81 1014.15 1014.32 1014.35 1014.31 1014.35 1014.50 1014.79 1015.18 1015.46 1015.59 1015.52 1015.46 1015.11 1014.87 1014.70 1014.34 1014.05 1013.84 1013.81
1004.50 1004.35 1004.38 1004.34 1004.30 1004.25 1004.76 1004.80 1005.47 1006.00 1006.74 1007.33 1007.57 1008.03 1008.74 1009.31 1009.81 1010.38 1010.92 1011.50 1012.04 1012.63 1013.05 1013.34 1013.60 1013.88 1013.91 1013.97 1014.04 1014.16 1014.42 1014.91 1015.05 1015.22 1015.27 1015.19 1014.97 1014.69 1014.30 1014.28 1014.37 1014.26 1014.06
1003.12 1003.24 1003.14 1003.23 1003.31 1003.63 1003.55 1004.03 1004.72 1005.01 1005.53 1005.92 1006.30 1006.70 1007.47 1008.37 1009.11 1009.74 1010.16 1010.84 1011.49 1012.09 1012.49 1012.69 1013.08 1013.47 1013.53 1013.67 1013.78 1013.82 1014.23 1014.65 1014.87 1014.90 1014.85 1014.80 1014.69 1014.37 1014.33 1014.46 1014.23 1014.00 1013.84
1002.27 1002.46 1002.46 1002.53 1002.71 1002.72 1002.78 1003.39 1003.76 1004.16 1004.40 1004.56 1004.62 1005.47 1006.20 1007.07 1007.98 1008.73 1009.55 1010.21 1010.80 1011.32 1011.87 1012.34 1012.49 1012.78 1013.18 1013.32 1013.43 1013.36 1013.96 1014.57 1014.60 1014.56 1014.55 1014.50 1014.53 1014.49 1014.09 1013.79 1014.07 1013.99 1013.40
1001.92 1001.93 1002.02 1002.14 1002.05 1002.05 1002.43 1002.74 1002.84 1002.78 1002.62 1002.96 1003.74 1004.39 1004.92 1005.70 1006.50 1007.70 1008.74 1009.47 1010.39 1011.03 1011.50 1011.87 1012.18 1012.51 1012.69 1012.99 1012.95 1012.99 1013.59 1014.03 1014.25 1014.37 1014.42 1014.45 1014.26 1013.81 1013.68 1013.57 1013.45 1013.27 1013.22
1001.87 1001.89 1002.06 1002.01 1001.91 1001.97 1002.30 1002.24 1002.09 1001.54 1001.88 1002.45 1002.91 1003.51 1004.05 1004.82 1005.74 1006.69 1007.70 1008.74 1009.73 1010.53 1011.14 1011.62 1012.02 1012.21 1012.33 1012.47 1012.41 1012.60 1013.07 1013.53 1013.85 1014.07 1014.09 1013.94 1013.75 1013.69 1013.44 1013.20 1013.28 1013.39 1013.56
1001.78 1001.72 1001.76 1001.75 1001.72 1001.62 1001.78 1001.83 1001.06 1001.47 1001.60 1002.06 1002.47 1002.97 1003.59 1004.29 1005.03 1006.03 1007.09 1008.29 1009.15 1009.99 1010.74 1011.20 1011.69 1011.82 1011.99 1012.05 1011.96 1012.28 1012.85 1013.18 1013.39 1013.51 1013.70 1013.75 1013.64 1013.41 1013.44 1013.33 1013.36 1013.65 1013.70
1001.54 1001.35 1001.38 1001.51 1001.39 1001.31 1001.30 1001.22 1001.04 1001.14 1001.48 1001.89 1002.25 1002.67 1003.25 1003.99 1004.70 1005.54 1006.35 1007.27 1008.38 1009.29 1009.95 1010.61 1011.09 1011.32 1011.69 1011.90 1011.95 1012.37 1012.68 1012.83 1013.21 1013.48 1013.62 1013.62 1013.62 1013.63 1013.61 1013.72 1013.58 1013.22 1013.44
1000.92 1000.96 1001.20 1001.32 1000.99 1000.90 1000.74 1000.69 1000.89 1001.09 1001.39 1001.59 1001.98 1002.45 1002.91 1003.54 1004.37 1005.02 1005.63 1006.39 1007.09 1007.63 1008.69 1009.33 1009.90 1010.78 1011.33 1011.34 1011.51 1011.97 1012.57 1012.91 1013.03 1013.31 1013.54 1013.68 1013.72 1013.73 1013.66 1013.45 1013.48 1013.56 1013.48
1000.78 1000.85 1000.69 1000.64 1000.27 1000.67 1000.64 1000.43 1000.62 1001.04 1001.40 1001.78 1002.10 1002.37 1002.81 1003.45 1004.02 1004.85 1005.91 1006.37 1006.67 1007.33 1007.87 1008.43 1009.17 1010.10 1010.21 1010.54 1011.18 1011.81 1012.19 1012.44 1012.62 1012.88 1013.38 1013.74 1013.86 1013.94 1013.99 1013.86 1013.90 1013.95 1013.92
Wind_Speed
16 9 12 11 9 9 12 13 13 9 8 3 3 3 4 3 4 5 7 7 6 7 6 5 5 4 5 5 4 2 3 3 2 3 4 5 5 5 5 4 5 5 6
9 8 9 9 11 13 14 12 14 11 10 7 4 4 4 4 3 4 6 7 7 7 6 6 6 6 4 5 4 4 1 2 2 1 1 5 6 4 4 3 3 6 3
13 10 10 12 10 12 14 14 14 13 11 8 3 2 2 1 1 3 4 6 7 7 7 7 6 6 5 5 5 5 6 4 1 4 2 4 3 4 4 3 3 4 3
8 10 14 10 11 15 11 13 13 12 11 10 7 8 6 6 4 4 3 5 6 7 7 7 7 7 5 6 6 5 5 4 5 1 5 3 2 3 7 3 4 5 4
11 13 16 17 14 12 12 11 12 12 11 12 10 9 7 5 3 2 5 5 5 7 7 7 7 7 5 6 7 5 6 5 4 4 3 3 3 3 5 10 5 3 5
10 10 13 12 12 8 9 9 11 11 10 11 10 11 10 8 5 5 5 5 4 5 7 7 6 6 6 7 6 7 7 6 5 4 4 5 4 4 4 6 5 8 7
9 10 11 11 10 11 11 10 11 12 10 11 11 12 11 9 9 7 5 5 4 4 6 5 6 5 6 7 6 6 6 6 4 6 6 6 7 5 4 4 8 6 6
9 11 14 13 13 14 12 12 12 12 10 11 13 10 9 8 7 7 5 5 5 5 4 6 6 6 6 6 6 4 5 5 5 8 6 5 5 5 7 6 3 8 8
10 11 9 13 12 12 14 15 12 12 11 13 10 10 9 9 9 8 6 5 5 4 6 6 6 6 5 5 5 4 5 5 5 6 6 5 4 5 6 6 5 6 7
9 9 9 11 10 12 12 11 13 15 14 11 10 11 11 10 8 6 8 7 6 5 6 6 6 5 5 5 5 4 4 5 5 4 6 5 4 6 5 5 5 6 8
10 9 9 9 11 8 9 12 11 10 10 11 11 9 9 9 7 7 7 8 6 6 6 6 6 6 6 5 4 5 5 6 6 5 6 8 6 6 4 4 5 7 5
8 8 9 8 8 9 9 12 12 12 13 11 10 11 8 7 8 9 8 7 7 6 7 6 6 6 6 5 6 6 5 6 6 7 6 8 5 7 6 5 7 6 6
6 7 5 8 9 9 9 11 12 14 11 9 10 8 9 9 11 10 8 7 7 7 6 6 7 7 7 6 6 6 6 6 7 6 6 7 6 7 5 5 5 5 6
10 8 7 9 10 10 11 11 12 11 9 9 10 11 12 13 12 10 8 8 7 7 7 6 6 6 6 6 5 5 5 6 5 5 6 6 6 7 7 6 6 6 5
8 10 12 11 10 9 9 10 11 11 10 11 11 14 12 10 8 8 8 7 7 7 7 6 5 5 5 4 5 5 5 5 5 5 5 6 8 13 11 5 5 5 4
11 11 11 10 12 14 14 13 13 12 11 13 15 12 9 10 11 9 9 8 7 7 6 6 6 6 4 7 8 6 5 4 4 5 5 5 9 9 13 14 15 8 4
10 10 13 14 14 15 15 15 15 9 11 14 13 12 11 12 12 10 8 9 8 6 7 7 6 7 6 8 7 6 4 3 3 4 5 5 4 8 6 11 11 8 10
12 10 11 11 13 13 9 14 9 13 14 14 14 12 12 13 10 10 12 8 6 8 6 7 7 5 5 8 6 5 5 2 3 4 5 5 6 6 7 5 6 6 6
12 10 9 10 11 10 14 13 9 13 14 16 16 15 14 13 10 13 13 7 7 6 6 5 7 7 6 8 7 7 4 2 3 3 3 4 4 4 8 4 5 6 6
10 9 10 7 8 10 12 11 13 14 15 17 18 14 14 14 14 14 10 6 5 5 5 6 6 7 6 7 9 8 4 3 3 2 3 5 3 9 9 4 4 5 6
8 6 3 7 9 7 7 12 14 16 18 17 11 13 14 16 15 10 7 7 6 6 6 6 5 6 6 6 11 12 5 4 2 2 2 2 7 9 12 12 4 6 3
5 5 5 7 7 5 6 10 13 16 11 9 12 13 14 12 10 14 8 8 8 7 6 6 4 4 5 9 11 13 10 8 4 3 2 3 9 11 10 7 6 5 5
6 4 5 7 6 5 6 8 12 6 7 8 11 11 10 11 11 12 11 7 7 6 6 5 4 4 4 4 10 12 10 8 4 3 3 5 8 8 3 4 5 6 3
6 3 4 7 8 5 6 8 6 6 7 9 8 7 10 9 8 7 9 9 8 6 6 5 5 5 4 4 3 4 4 5 3 1 1 4 5 2 1 2 2 1 1
7 2 5 7 10 5 6 6 6 6 6 7 6 7 7 10 9 7 9 8 6 8 8 6 6 6 5 5 9 8 4 4 4 2 1 1 1 2 2 2 1 1 1
5 6 8 7 9 5 7 6 4 6 6 6 5 6 7 6 8 8 5 4 5 11 9 10 7 3 6 12 13 11 9 8 5 2 2 2 2 3 3 3 2 2 3
Wind_Direction
229 214 207 196 178 178 175 183 179 190 169 151 158 198 209 213 232 225 231 228 227 228 218 226 231 225 220 228 221 237 238 278 254 321 310 293 279 280 260 258 252 261 249
227 219 200 184 183 181 187 183 189 184 189 186 178 167 168 216 209 216 230 226 226 226 220 217 224 219 226 234 221 193 265 268 224 251 315 335 330 339 310 313 287 275 283
212 211 197 194 187 184 186 187 188 185 189 179 124 91 46 345 275 244 250 234 224 228 220 221 218 223 209 227 213 194 187 231 271 208 170 328 289 317 331 320 327 330 300
205 205 195 191 194 200 185 184 185 183 189 172 177 175 188 211 220 207 217 250 231 236 231 228 220 221 210 224 221 209 198 166 228 223 230 235 149 310 325 321 312 325 293
197 200 198 196 200 186 184 184 182 186 187 181 190 192 206 215 209 218 246 254 261 247 243 229 224 225 212 226 216 214 202 195 192 187 184 226 224 220 230 294 308 269 244
206 205 199 186 194 180 178 176 179 193 185 182 193 195 203 210 219 233 246 247 248 254 241 236 227 226 217 220 222 218 213 211 217 198 196 204 198 196 196 243 280 280 300
194 187 182 181 184 184 185 184 186 200 188 187 195 203 208 204 216 222 223 238 250 249 255 242 240 229 226 228 220 216 220 212 203 201 220 221 226 221 201 211 269 275 301
197 191 192 190 188 191 189 189 191 202 189 192 205 204 202 210 218 214 212 229 228 237 242 248 245 243 234 232 220 221 226 212 223 229 220 224 222 196 214 225 205 285 276
192 193 189 192 189 187 193 192 192 203 195 201 201 207 202 204 217 217 212 226 236 246 245 241 248 252 249 241 228 230 237 219 232 236 235 231 232 214 219 219 194 222 284
189 191 193 193 195 195 193 189 194 199 201 197 199 209 208 208 212 203 222 225 240 238 253 256 245 249 241 235 222 240 241 234 246 241 243 247 239 236 218 215 213 214 243
198 194 198 198 195 185 181 190 193 193 195 196 200 202 206 206 202 211 221 223 228 230 240 246 254 253 253 238 231 243 248 242 257 249 241 255 238 249 235 219 225 237 211
204 204 197 183 184 193 186 194 196 199 204 200 197 209 203 194 205 217 221 209 224 222 231 233 238 243 243 236 227 247 242 245 261 260 250 260 261 254 246 228 238 242 237
230 227 203 198 199 201 198 201 202 209 204 189 196 203 204 199 212 216 212 203 212 227 229 224 230 236 235 230 226 225 242 244 247 255 255 266 267 270 260 245 248 241 254
212 216 219 214 210 205 203 205 213 209 200 194 197 206 207 207 209 208 198 199 202 213 215 219 229 234 238 231 234 227 243 254 255 264 258 268 261 262 277 275 252 254 253
232 221 216 216 213 208 210 211 215 200 188 197 202 215 211 204 199 194 196 197 196 203 207 207 223 236 225 223 221 216 232 252 279 277 277 265 268 279 278 270 261 245 247
242 227 235 220 209 210 212 213 215 209 187 196 211 212 200 196 200 197 193 188 197 201 196 204 211 229 236 230 226 203 217 233 254 290 293 289 295 294 299 300 298 288 245
245 232 220 216 220 213 208 209 211 182 196 206 209 206 201 203 201 193 181 192 194 183 202 201 198 220 232 236 229 228 170 192 242 278 293 305 288 306 297 300 306 313 322
244 234 228 228 226 224 209 220 190 187 195 209 209 204 199 207 197 186 195 187 173 191 191 200 203 201 228 230 231 182 143 159 255 263 277 283 298 304 291 295 312 316 316
245 234 221 223 236 216 214 209 193 199 198 208 211 204 195 200 190 198 197 180 167 178 185 184 190 195 224 234 220 148 140 210 266 272 286 283 289 336 6 360 310 307 307
236 232 237 235 222 224 212 203 209 208 206 211 213 198 192 194 195 201 185 160 166 179 172 189 193 200 214 229 203 150 149 208 234 276 290 316 276 338 331 300 285 290 275
252 236 242 239 240 249 193 212 218 214 214 217 198 193 190 193 193 172 157 156 163 162 180 187 188 202 207 223 197 168 170 196 192 234 285 319 329 317 314 307 255 244 301
302 301 278 272 279 254 202 224 225 228 220 199 195 197 193 189 173 174 160 156 158 169 180 178 203 213 222 218 202 183 189 182 178 229 226 265 310 323 315 307 291 60 47
282 268 259 280 282 269 213 231 244 218 196 181 191 188 180 181 173 169 162 146 159 165 176 181 191 204 206 220 193 187 188 177 170 175 232 320 323 309 343 69 78 55 39
246 245 284 279 278 260 247 236 255 208 184 194 192 176 173 163 161 160 163 160 166 171 177 178 191 197 192 189 161 138 157 168 130 155 334 320 322 32 34 41 14 66 154
282 247 242 255 273 278 269 255 236 193 196 189 174 172 168 171 161 164 166 169 182 174 175 190 175 170 198 207 179 177 178 172 193 142 95 6 332 309 301 277 302 276 24
264 274 272 271 278 262 268 265 208 190 180 179 172 173 162 162 159 154 129 69 151 172 169 159 151 186 167 164 168 174 173 175 174 136 186 236 236 246 254 255 278 266 292